Baltimore Martin, MD

7:43 PM EDT on April 21, 2018 (GMT -0400)
Martin State

Weather History for KMTN - May, 2013

Change the Weather History Date:

Tuesday, May 7, 2013

  Actual Average Record
Temperature  
Mean Temperature 60 °F -  
Max Temperature 64 °F 69 °F 89 °F (2000)
Min Temperature 57 °F 52 °F 42 °F (2007)
Degree Days  
Heating Degree Days 4    
Growing Degree Days 10 (Base 50)    
Moisture  
Dew Point 60 °F    
Average Humidity 96    
Maximum Humidity 100    
Minimum Humidity 88    
Precipitation  
Precipitation 0.00 in - - ()
Sea Level Pressure  
Sea Level Pressure 30.05 in    
Wind  
Wind Speed 7 mph (NE)    
Max Wind Speed 10 mph    
Max Gust Speed 18 mph    
Visibility 6 miles    
Events Rain    
Averages and records for this station are not official NWS values.
T = Trace of Precipitation, MM = Missing Value Source: NWS Daily Summary

Daily Weather History Graph

Daily Weather History Graph

Search for Another Location

Airport or City:

Astronomy

May. 07, 2013 Rise Set
Actual Time 5:59 AM EDT 8:05 PM EDT
Civil Twilight 5:30 AM EDT 8:34 PM EDT
Nautical Twilight 4:54 AM EDT 9:11 PM EDT
Astronomical Twilight 4:15 AM EDT 9:50 PM EDT
Moon 4:32 AM EDT (5/7) 6:03 PM EDT (5/7)
Length of Visible Light 15h 04m
Length of Day
14h 05m
Waning Crescent, 5% of the Moon is Illuminated
May 7
Waning Crescent
May 9
New
May 18
First Quarter
May 25
Full
May 31
Last Quarter

Hourly Weather History & Observations

Time (EDT) Temp. Dew Point Humidity Pressure Visibility Wind Dir Wind Speed Gust Speed Precip Events Conditions
12:03 AM 60.8 °F 57.2 °F 88% 30.12 in 10.0 mi ENE 5.8 mph - N/A   Overcast
12:24 AM 60.8 °F 57.2 °F 88% 30.12 in 10.0 mi ENE 5.8 mph - N/A   Overcast
12:42 AM 60.8 °F 57.2 °F 88% 30.11 in 10.0 mi ENE 5.8 mph - N/A   Overcast
1:03 AM 60.8 °F 57.2 °F 88% 30.11 in 10.0 mi ENE 8.1 mph - N/A   Overcast
1:24 AM 60.8 °F 57.2 °F 88% 30.10 in 10.0 mi ENE 8.1 mph - N/A   Overcast
1:42 AM 59.0 °F 57.2 °F 94% 30.10 in 10.0 mi NE 8.1 mph - N/A   Overcast
2:24 AM 59.0 °F 59.0 °F 100% 30.08 in 7.0 mi NE 5.8 mph - N/A   Overcast
2:42 AM 59.0 °F 59.0 °F 100% 30.07 in 7.0 mi NE 5.8 mph - N/A   Overcast
3:03 AM 59.0 °F 59.0 °F 100% 30.07 in 7.0 mi NE 6.9 mph - N/A   Overcast
3:24 AM 59.0 °F 59.0 °F 100% 30.07 in 4.0 mi NE 6.9 mph - N/A   Overcast
3:42 AM 59.0 °F 59.0 °F 100% 30.06 in 3.0 mi NE 4.6 mph - N/A   Overcast
4:03 AM 59.0 °F 59.0 °F 100% 30.06 in 4.0 mi NE 4.6 mph - N/A   Overcast
4:24 AM 59.0 °F 59.0 °F 100% 30.06 in 3.0 mi NE 5.8 mph - N/A   Overcast
4:42 AM 59.0 °F 59.0 °F 100% 30.06 in 3.0 mi NE 3.5 mph - N/A   Overcast
5:03 AM 59.0 °F 59.0 °F 100% 30.06 in 2.5 mi NE 6.9 mph - N/A   Overcast
5:21 AM 59.0 °F 59.0 °F 100% 30.06 in 4.0 mi NE 5.8 mph - N/A   Overcast
5:36 AM 59.0 °F 59.0 °F 100% 30.05 in 4.0 mi NE 6.9 mph - N/A   Overcast
5:50 AM 57.2 °F 57.2 °F 100% 30.06 in 2.0 mi NE 4.6 mph - N/A   Overcast
6:50 AM 57.2 °F 57.2 °F 100% 30.07 in 2.0 mi ENE 8.1 mph - N/A   Overcast
7:45 AM 57.2 °F 57.2 °F 100% 30.07 in 2.5 mi NE 6.9 mph - N/A   Overcast
8:50 AM 59.0 °F 57.2 °F 94% 30.08 in 6.0 mi NE 3.5 mph - N/A   Overcast
9:45 AM 60.8 °F 57.2 °F 88% 30.09 in 10.0 mi ENE 8.1 mph - N/A   Overcast
10:45 AM 59.0 °F 57.2 °F 94% 30.09 in 4.0 mi NE 6.9 mph - N/A Rain Light Rain
11:45 AM 59.0 °F 59.0 °F 100% 30.07 in 4.0 mi NE 8.1 mph - N/A Rain Light Rain
12:50 PM 62.6 °F 60.8 °F 94% 30.06 in 5.0 mi NE 8.1 mph - N/A Rain Light Rain
1:55 PM 62.6 °F 62.6 °F 100% 30.04 in 5.0 mi NE 8.1 mph - N/A Rain Light Rain
2:45 PM 62.6 °F 62.6 °F 100% 30.03 in 5.0 mi NE 6.9 mph - N/A Rain Light Rain
3:20 PM 64.4 °F 62.6 °F 94% 30.02 in 7.0 mi ENE 5.8 mph - N/A   Overcast
3:45 PM 64.4 °F 62.6 °F 94% 30.02 in 2.0 mi ENE 6.9 mph - N/A Rain Rain
4:45 PM 64.4 °F 64.4 °F 100% 30.00 in 4.0 mi East 8.1 mph - N/A Rain Light Rain
5:55 PM 64.4 °F 62.6 °F 94% 29.99 in 7.0 mi East 8.1 mph - N/A   Overcast
6:54 PM 64.4 °F 62.6 °F 94% 30.00 in 5.0 mi ENE 8.1 mph - N/A Rain Light Rain
7:54 PM 64.4 °F 62.6 °F 94% 29.99 in 5.0 mi ENE 9.2 mph 18.4 mph N/A Rain Rain
8:45 PM 64.4 °F 62.6 °F 94% 29.99 in 7.0 mi ENE 8.1 mph - N/A   Overcast
9:45 PM 62.6 °F 62.6 °F 100% 30.01 in 7.0 mi East 8.1 mph - N/A   Overcast
10:24 PM 62.6 °F 60.8 °F 94% 30.02 in 10.0 mi ENE 9.2 mph 17.3 mph N/A Rain Light Rain
10:45 PM 62.6 °F 60.8 °F 94% 30.02 in 10.0 mi ENE 10.4 mph - N/A   Overcast
11:06 PM 60.8 °F 60.8 °F 100% 30.00 in 10.0 mi ENE 8.1 mph - N/A Rain Light Rain
11:45 PM 60.8 °F 59.0 °F 94% 30.02 in 10.0 mi ENE 9.2 mph 18.4 mph N/A   Mostly Cloudy